map of KFFC home
Great Circle Mapper logo
KFFC - Airport
Location
City:  Atlanta, Georgia, United States
Name:Atlanta Regional Falcon Field
ICAO:KFFC
FAA:FFC

Details
Type:Airport (Airfield)
Use:Public/Civil
Latitude:3321'26"N (33.357250)
Longitude:8434'19"W (-84.571832)
Datum:WGS 1984
Elevation:807 ft (246 m)
Variation:4.71W (WMM2015 magnetic declination)
-0.09 annual change
Runways:1
Longest:5219 × 100 ft (1591 × 30.5 m), paved

Time
Time Zone:UTC-5 (DST-4)
Local Time:

Weather
METAR:KFFC 011353Z AUTO 12004KT 9SM CLR 06/02 A3018 RMK AO2 SLP226 T00610017

Related Locations
Nearby:
Farthest:MGV: 11311 mi / 18204 km
Margaret River, WA, AU

Find:

   beyond  
but within

Other Information
Maps:
NOTAMs:
Links:
Sources:

  
flag of United States
flag of Georgia
  

Sectional Chart

Flight Planning
at skyvector.com

Satellite Image

Google Maps Satellite View

 

Copyright © 2004-2015 Karl L. Swartz. All rights reserved.
The Great Circle Mapper name and logo are trademarks of the Great Circle Mapper.
All other trademarks mentioned herein belong to their respective owners.
Please see credits for attibutions and further copyright information.

  Follow gcmap on Facebook Follow gcmap on Twitter

hCard Microformat

Geo Microformat